User: anonymous   Login
Location: Montclair
(37.8322°N, 122.2092°W)
Time: 22:38:47
(UTC+00:00)
Language:

Cosmos 540 Rocket - Orbit

View from above orbital plane
View from above orbital plane
View from above satellite
View from above satellite

Ground track
Ground track

The orbit is defined by the following mean orbital elements,

1 06324U          26071.61123067 +.00000000 +00000-0 +10307-3 0 00004
2 06324  74.0767 308.8166 0008758 339.4108  20.6696 14.45282085    04
Epoch (UTC): 12 March 2026 14:40:10
Eccentricity: 0.0008758
inclination: 74.0767°
perigee height: 735 km
apogee height: 747 km
right ascension of ascending node: 308.8166°
argument of perigee: 339.4108°
revolutions per day: 14.45282085
mean anomaly at epoch: 20.6696°

The dashed part of the orbit path shows where the satellite is in the earth's shadow,  

DLR